GW0996 Weather Reports


time (UTC)temp
F
wind
direction
speed
knots
gust
knots
rain 1hr
in
rain 24hr
in
rain mn
in
humidity
%
barometer
mb
20260508012745 47 81 0.0 0.9 0.00 0.00 0.00 93 1011.7
20260508012243 47 81 0.0 0.9 0.00 0.00 0.00 93 1011.8
20260508011745 47 28 0.0 0.9 0.00 0.00 0.00 93 1011.6
20260508011245 47 41 0.0 0.0 0.00 0.00 0.00 93 1011.5
20260508010722 47 41 0.0 0.0 0.00 0.00 0.00 93 1011.8
20260508010220 47 41 0.0 0.0 0.00 0.00 0.00 93 1011.7
20260508005720 47 41 0.0 0.0 0.00 0.00 0.00 93 1011.8
20260508005207 48 41 0.0 0.0 0.00 0.00 0.00 93 1011.9
20260508004709 47 41 0.0 0.0 0.00 0.00 0.00 93 1012.0
20260508004208 47 41 0.0 0.0 0.00 0.00 0.00 93 1012.0
20260508003657 47 41 0.0 0.0 0.00 0.00 0.00 92 1012.1
20260508003158 48 41 0.0 0.0 0.00 0.00 0.00 92 1012.1
20260508002656 48 41 0.0 0.0 0.00 0.00 0.00 92 1012.2
20260508001657 48 41 0.0 0.9 0.00 0.00 0.00 92 1012.4
20260508001155 48 40 0.0 0.9 0.00 0.00 0.00 92 1012.3
20260508000656 48 50 0.0 0.9 0.00 0.00 0.00 92 1012.3
20260507235148 49 49 0.0 0.9 0.00 0.00 0.00 92 1012.4
20260507234642 48 91 0.0 0.9 0.00 0.00 0.00 91 1012.5
20260507234144 49 90 0.0 0.9 0.00 0.00 0.00 91 1012.7
20260507233144 49 8 0.9 0.9 0.00 0.00 0.00 91 1012.6
20260507232644 49 9 0.0 0.0 0.00 0.00 0.00 90 1012.8
20260507232147 49 9 0.0 0.0 0.00 0.00 0.00 90 1012.9
20260507231645 49 8 0.0 0.0 0.00 0.00 0.00 90 1013.0
20260507231143 49 10 0.0 1.7 0.00 0.00 0.00 90 1012.9
20260507230646 50 9 0.0 1.7 0.00 0.00 0.00 91 1012.8
20260507230146 50 20 0.0 0.0 0.00 0.00 0.00 90 1013.0
20260507225644 50 20 0.0 0.0 0.00 0.00 0.00 90 1013.0
20260507224644 50 20 0.0 0.0 0.00 0.00 0.00 90 1013.0
20260507224145 50 20 0.0 0.0 0.00 0.00 0.00 90 1012.9
20260507223648 50 20 0.0 0.0 0.00 0.00 0.00 89 1012.9
20260507223143 50 20 0.0 0.0 0.00 0.00 0.00 89 1012.7
20260507222146 51 17 0.0 0.9 0.00 0.00 0.00 89 1012.7
20260507221643 50 18 0.0 0.9 0.00 0.00 0.00 89 1012.8
20260507221142 51 8 0.0 0.9 0.00 0.00 0.00 89 1012.4
20260507220646 51 9 0.0 0.9 0.00 0.00 0.00 88 1012.8
20260507220143 51 3 0.0 1.7 0.00 0.00 0.00 87 1012.6
20260507215643 51 2 0.0 1.7 0.00 0.00 0.00 88 1012.7
20260507215146 51 25 0.0 0.0 0.00 0.00 0.00 87 1012.7
20260507214643 51 25 0.0 0.0 0.00 0.00 0.00 87 1012.2
20260507214142 51 24 0.0 0.0 0.00 0.00 0.00 87 1012.5
20260507213646 51 25 0.0 0.9 0.00 0.00 0.00 87 1012.6
20260507213121 51 14 0.0 0.9 0.00 0.00 0.00 87 1012.3
20260507212618 52 12 0.0 0.0 0.00 0.00 0.00 86 1012.4
20260507212119 52 10 0.0 0.0 0.00 0.00 0.00 86 1012.4
20260507211607 52 10 0.0 0.0 0.00 0.00 0.00 85 1012.5
20260507211107 53 6 0.0 0.9 0.00 0.00 0.00 83 1012.4
20260507210555 53 5 0.0 0.9 0.00 0.00 0.00 85 1012.6
20260507210057 53 11 0.0 0.0 0.00 0.00 0.00 84 1012.7
20260507205557 53 5 0.0 0.0 0.00 0.00 0.00 84 1012.6
20260507205054 53 7 0.0 0.0 0.00 0.00 0.00 83 1012.8
20260507204556 54 6 0.0 0.0 0.00 0.00 0.00 83 1012.4
20260507204059 54 7 0.0 0.0 0.00 0.00 0.00 81 1012.4
20260507203556 54 7 0.0 0.0 0.00 0.00 0.00 81 1012.2
20260507203056 55 7 0.0 0.0 0.00 0.00 0.00 80 1012.5
20260507202558 55 7 0.0 0.0 0.00 0.00 0.00 80 1012.3
20260507202058 55 7 0.0 0.9 0.00 0.00 0.00 79 1012.4
20260507201556 56 7 0.0 0.9 0.00 0.00 0.00 78 1012.5
20260507201059 56 339 0.0 0.0 0.00 0.00 0.00 77 1012.4
20260507200557 57 339 0.0 1.7 0.00 0.00 0.00 75 1012.3
20260507200056 57 332 0.0 1.7 0.00 0.00 0.00 75 1012.6
20260507195558 57 342 0.0 0.9 0.00 0.00 0.00 76 1012.9
20260507195054 57 339 0.0 0.9 0.00 0.00 0.00 77 1012.5
20260507194554 57 334 0.0 0.9 0.00 0.00 0.00 77 1012.5
20260507194056 57 347 0.0 0.9 0.00 0.00 0.00 77 1012.5
20260507193555 57 54 0.0 0.9 0.00 0.00 0.00 76 1012.5
20260507193055 57 32 0.0 0.0 0.00 0.00 0.00 77 1012.6
20260507192543 58 38 0.0 0.9 0.00 0.00 0.00 76 1012.4
20260507192044 58 37 0.0 0.0 0.00 0.00 0.00 76 1012.6
20260507190542 59 314 0.0 1.7 0.00 0.00 0.00 75 1012.6
20260507190046 60 339 0.9 1.7 0.00 0.00 0.00 75 1012.3
20260507185544 60 347 0.0 1.7 0.00 0.00 0.00 74 1012.3
20260507185045 60 356 0.0 0.9 0.00 0.00 0.00 74 1012.2
20260507184546 61 324 0.0 0.9 0.00 0.00 0.00 72 1012.2
20260507184045 62 330 0.0 0.9 0.00 0.00 0.00 70 1012.2
20260507183045 63 320 0.0 1.7 0.00 0.00 0.00 67 1011.9
20260507182543 64 307 0.0 1.7 0.00 0.00 0.00 64 1012.1
20260507182043 65 313 0.0 2.6 0.00 0.00 0.00 63 1011.9
20260507181547 65 315 1.7 2.6 0.00 0.00 0.00 59 1012.0
20260507181044 66 314 0.0 1.7 0.00 0.00 0.00 60 1011.8
20260507180046 66 314 0.9 2.6 0.00 0.00 0.00 57 1011.9
20260507175543 67 314 0.9 2.6 0.00 0.00 0.00 59 1011.7
20260507175043 67 314 0.9 2.6 0.00 0.00 0.00 59 1011.6
20260507174545 67 316 0.9 2.6 0.00 0.00 0.00 58 1011.6
20260507174043 67 312 0.9 1.7 0.00 0.00 0.00 57 1011.5
20260507173543 68 312 0.9 1.7 0.00 0.00 0.00 57 1011.4
20260507173044 69 311 0.0 1.7 0.00 0.00 0.00 54 1011.4
20260507172543 69 311 0.0 1.7 0.00 0.00 0.00 52 1011.2
20260507171545 69 311 0.9 2.6 0.00 0.00 0.00 52 1011.3
20260507171043 69 311 0.9 2.6 0.00 0.00 0.00 52 1011.2
20260507170546 69 310 0.9 2.6 0.00 0.00 0.00 51 1011.3
20260507170045 69 311 0.0 1.7 0.00 0.00 0.00 52 1011.1
20260507165542 69 311 0.9 1.7 0.00 0.00 0.00 49 1011.4
20260507165043 69 311 1.7 5.2 0.00 0.00 0.00 48 1011.4
20260507164545 69 315 0.9 5.2 0.00 0.00 0.00 48 1011.3
20260507164044 70 295 0.9 2.6 0.00 0.00 0.00 48 1011.5
20260507163045 69 307 0.0 1.7 0.00 0.00 0.00 51 1011.4
20260507162544 69 313 0.0 2.6 0.00 0.00 0.00 49 1011.4
20260507162043 69 313 0.9 2.6 0.00 0.00 0.00 52 1011.3
20260507161548 68 316 0.9 1.7 0.00 0.00 0.00 52 1011.5
20260507160534 69 316 0.0 1.7 0.00 0.00 0.00 51 1011.5
20260507155532 69 317 0.0 0.0 0.00 0.00 0.00 51 1011.5
20260507155034 70 317 0.0 1.7 0.00 0.00 0.00 49 1011.5
20260507154540 70 317 0.0 1.7 0.00 0.00 0.00 51 1011.2
20260507154032 71 320 0.0 6.1 0.00 0.00 0.00 47 1011.5
20260507153521 71 317 0.0 6.1 0.00 0.00 0.00 46 1011.5
20260507152524 71 335 0.0 1.7 0.00 0.00 0.00 43 1011.6
20260507152007 71 332 0.0 0.0 0.00 0.00 0.00 46 1011.7
20260507151511 71 332 0.0 1.7 0.00 0.00 0.00 43 1011.5
20260507151008 71 331 0.0 1.7 0.00 0.00 0.00 47 1011.5
20260507150509 71 49 0.9 6.1 0.00 0.00 0.00 46 1011.5
20260507150011 71 325 1.7 6.1 0.00 0.00 0.00 45 1011.5
20260507145508 71 323 2.6 6.1 0.00 0.00 0.00 48 1011.6
20260507145009 71 307 2.6 6.1 0.00 0.00 0.00 46 1011.7
20260507144510 71 326 1.7 5.2 0.00 0.00 0.00 47 1011.8
20260507144010 71 323 2.6 6.1 0.00 0.00 0.00 46 1011.7
20260507143509 72 314 4.3 6.1 0.00 0.00 0.00 44 1011.8
20260507143011 71 348 0.9 2.6 0.00 0.00 0.00 50 1011.9
20260507142008 71 6 0.0 3.5 0.00 0.00 0.00 46 1012.1
20260507141501 71 316 1.7 3.5 0.00 0.00 0.00 46 1012.0
20260507141001 72 304 0.0 2.6 0.00 0.00 0.00 47 1012.0
20260507140459 72 333 0.0 0.9 0.00 0.00 0.00 45 1012.0
20260507140000 72 328 0.0 0.9 0.00 0.00 0.00 46 1012.1
20260507135500 72 327 0.0 0.9 0.00 0.00 0.00 44 1012.1
20260507135000 72 327 0.0 0.9 0.00 0.00 0.00 44 1012.4
20260507134459 73 330 0.0 0.9 0.00 0.00 0.00 43 1012.2
20260507134000 73 320 0.9 1.7 0.00 0.00 0.00 45 1012.2
20260507133001 72 322 0.0 5.2 0.00 0.00 0.00 47 1012.3
20260507132501 72 320 0.9 5.2 0.00 0.00 0.00 46 1012.5
20260507132003 71 308 0.0 3.5 0.00 0.00 0.00 48 1012.5
20260507131501 71 315 0.9 5.2 0.00 0.00 0.00 45 1012.4
20260507131001 71 330 1.7 5.2 0.00 0.00 0.00 44 1012.4
20260507130501 72 326 0.9 5.2 0.00 0.00 0.00 47 1012.6
20260507125452 71 354 1.7 6.1 0.00 0.00 0.00 45 1012.6
20260507124949 73 315 4.3 6.1 0.00 0.00 0.00 42 1012.6
20260507124449 72 109 0.0 1.7 0.00 0.00 0.00 45 1012.6
20260507123948 71 290 0.0 1.7 0.00 0.00 0.00 44 1012.5
20260507123449 70 319 0.0 3.5 0.00 0.00 0.00 45 1012.6
20260507122950 71 319 0.0 3.5 0.00 0.00 0.00 49 1012.6
20260507122451 72 7 0.9 0.9 0.00 0.00 0.00 46 1012.7
20260507121948 71 6 0.0 2.6 0.00 0.00 0.00 46 1012.6
20260507121449 70 16 0.0 3.5 0.00 0.00 0.00 49 1012.9
20260507120947 70 274 0.9 3.5 0.00 0.00 0.00 48 1012.9
20260507120448 71 315 1.7 3.5 0.00 0.00 0.00 46 1012.8
20260507115949 69 336 1.7 3.5 0.00 0.00 0.00 49 1012.9
20260507115449 70 328 0.9 3.5 0.00 0.00 0.00 46 1012.8
20260507114951 69 310 0.0 6.1 0.00 0.00 0.00 52 1012.8
20260507114450 69 308 3.5 6.1 0.00 0.00 0.00 48 1013.0
20260507113950 69 311 2.6 5.2 0.00 0.00 0.00 49 1012.9
20260507113448 71 316 2.6 5.2 0.00 0.00 0.00 48 1013.1
20260507112948 69 117 0.0 2.6 0.00 0.00 0.00 55 1013.1
20260507112448 69 118 0.9 2.6 0.00 0.00 0.00 50 1013.1
20260507111949 68 21 0.0 6.1 0.00 0.00 0.00 53 1012.9
20260507111447 69 322 3.5 7.8 0.00 0.00 0.00 50 1013.1
20260507110952 69 314 1.7 7.8 0.00 0.00 0.00 50 1013.4
20260507110450 68 101 0.9 7.0 0.00 0.00 0.00 54 1013.2
20260507105950 69 312 1.7 6.1 0.00 0.00 0.00 53 1013.4
20260507105447 69 316 2.6 6.1 0.00 0.00 0.00 51 1013.3
20260507104447 69 313 1.7 7.0 0.00 0.00 0.00 50 1013.5
20260507103949 68 313 1.7 7.8 0.00 0.00 0.00 53 1013.3
20260507103449 67 322 0.9 8.7 0.00 0.00 0.00 55 1013.5
20260507102949 66 318 3.5 8.7 0.00 0.00 0.00 54 1013.7
20260507102449 67 312 2.6 6.1 0.00 0.00 0.00 55 1013.6
20260507101937 68 339 0.0 7.0 0.00 0.00 0.00 54 1013.7
20260507101436 68 325 2.6 7.0 0.00 0.00 0.00 52 1013.6
20260507100936 67 353 0.9 7.8 0.00 0.00 0.00 59 1013.7
20260507100424 66 320 3.5 8.7 0.00 0.00 0.00 55 1013.8
20260507095924 67 316 6.1 8.7 0.00 0.00 0.00 53 1013.9
20260507095423 67 313 0.9 7.0 0.00 0.00 0.00 51 1013.5
20260507094913 67 334 3.5 7.0 0.00 0.00 0.00 53 1013.5
20260507094413 67 310 2.6 7.0 0.00 0.00 0.00 53 1013.6
20260507093914 68 313 3.5 7.0 0.00 0.00 0.00 52 1013.6
20260507093413 69 319 2.6 3.5 0.00 0.00 0.00 52 1013.7
20260507092912 69 331 0.0 3.5 0.00 0.00 0.00 53 1013.6
20260507092413 67 255 0.0 5.2 0.00 0.00 0.00 53 1013.6
20260507091912 67 310 0.0 6.1 0.00 0.00 0.00 55 1013.6
20260507090400 68 312 0.0 5.2 0.00 0.00 0.00 53 1013.5
20260507085901 70 322 1.7 5.2 0.00 0.00 0.00 48 1013.7
20260507084900 69 306 0.0 2.6 0.00 0.00 0.00 50 1013.5
20260507084401 69 357 0.0 1.7 0.00 0.00 0.00 52 1013.3
20260507083901 68 335 1.7 3.5 0.00 0.00 0.00 48 1013.3
20260507082850 68 327 1.7 3.5 0.00 0.00 0.00 48 1013.3
20260507082348 69 130 0.0 0.9 0.00 0.00 0.00 48 1013.3
20260507081847 67 279 0.0 1.7 0.00 0.00 0.00 49 1013.5
20260507081348 66 308 0.9 1.7 0.00 0.00 0.00 52 1013.4
20260507080848 67 146 0.0 0.9 0.00 0.00 0.00 51 1013.3
20260507080347 66 132 0.0 0.9 0.00 0.00 0.00 62 1013.4
20260507075847 67 130 0.0 1.7 0.00 0.00 0.00 57 1013.3
20260507075349 66 130 0.0 1.7 0.00 0.00 0.00 61 1013.2
20260507074849 64 359 0.0 0.9 0.00 0.00 0.00 69 1013.2
20260507074351 64 359 0.0 1.7 0.00 0.00 0.00 69 1013.3
20260507073849 63 357 0.0 1.7 0.00 0.00 0.00 70 1013.5
20260507073349 63 17 0.0 0.9 0.00 0.00 0.00 69 1013.5
20260507072847 62 18 0.0 0.0 0.00 0.00 0.00 73 1013.5
20260507071836 62 18 0.0 0.0 0.00 0.00 0.00 72 1013.3
20260507071335 60 18 0.0 0.0 0.00 0.00 0.00 77 1013.4
20260507065825 58 17 0.0 0.9 0.00 0.00 0.00 78 1013.3
20260507065323 58 19 0.0 0.0 0.00 0.00 0.00 80 1013.5
20260507064815 58 19 0.0 0.0 0.00 0.00 0.00 79 1013.3
20260507064314 57 19 0.0 0.0 0.00 0.00 0.00 83 1013.2
20260507063813 56 18 0.0 0.0 0.00 0.00 0.00 83 1013.4
20260507063302 57 19 0.0 0.0 0.00 0.00 0.00 82 1013.3
20260507062800 56 19 0.0 0.0 0.00 0.00 0.00 82 1013.3
20260507062301 55 19 0.0 0.0 0.00 0.00 0.00 86 1013.3
20260507061301 56 19 0.0 0.0 0.00 0.00 0.00 85 1013.5
20260507055802 52 16 0.0 0.0 0.00 0.01 0.00 95 1013.3
20260507055305 52 16 0.0 0.0 0.00 0.02 0.00 94 1013.3
20260507054758 51 16 0.0 0.0 0.00 0.03 0.00 95 1013.2
20260507054259 50 16 0.0 0.0 0.00 0.03 0.00 95 1013.2
20260507053801 50 16 0.0 0.9 0.00 0.03 0.00 95 1013.2
20260507053302 50 15 0.0 0.9 0.00 0.03 0.00 95 1013.4
20260507052800 49 317 0.0 0.0 0.00 0.03 0.00 95 1013.1
20260507052305 49 316 0.0 0.0 0.00 0.03 0.00 94 1013.1
20260507051301 48 316 0.0 0.0 0.00 0.03 0.00 94 1013.2
20260507050300 48 316 0.0 0.9 0.00 0.03 0.00 94 1013.0
20260507045735 49 316 0.0 0.9 0.00 0.03 0.00 94 1013.0
20260507045236 48 316 0.0 0.0 0.00 0.03 0.00 94 1013.0
20260507044720 48 317 0.0 0.0 0.00 0.03 0.00 94 1012.8
20260507044214 48 317 0.0 0.0 0.00 0.03 0.00 94 1012.7
20260507043700 48 317 0.0 0.0 0.00 0.03 0.00 93 1012.7
20260507043201 48 317 0.0 0.0 0.00 0.03 0.00 93 1012.8
20260507042700 49 317 0.0 0.0 0.00 0.03 0.00 93 1012.8
20260507042203 49 317 0.0 0.0 0.00 0.03 0.00 93 1012.4
20260507041647 49 317 0.0 0.0 0.00 0.03 0.00 93 1012.3
20260507041150 49 317 0.0 0.0 0.00 0.03 0.00 93 1012.5
20260507040651 49 317 0.0 0.0 0.00 0.03 0.00 93 1012.4
20260507040149 49 317 0.0 0.0 0.00 0.03 0.00 93 1012.5
20260507035648 49 317 0.0 0.0 0.00 0.03 0.00 93 1012.3
20260507035151 49 316 0.0 0.0 0.00 0.03 0.00 93 1012.4
20260507034650 49 317 0.0 0.0 0.00 0.03 0.00 93 1012.3
20260507034149 50 317 0.0 0.9 0.00 0.03 0.00 93 1012.3
20260507033651 50 317 0.0 0.9 0.00 0.03 0.00 92 1012.4
20260507033150 50 316 0.0 0.0 0.00 0.03 0.00 92 1012.1
20260507032628 50 316 0.0 0.0 0.00 0.03 0.00 92 1012.2
20260507032123 51 316 0.0 0.0 0.00 0.03 0.00 92 1012.4
20260507031607 51 316 0.0 0.0 0.00 0.03 0.00 91 1012.3
20260507030600 51 316 0.0 0.0 0.00 0.03 0.00 91 1012.3
20260507030053 51 315 0.0 0.0 0.00 0.03 0.00 91 1012.3
20260507025550 51 314 0.0 0.0 0.00 0.03 0.00 91 1012.3
20260507025046 52 314 0.0 0.0 0.00 0.03 0.00 90 1012.3
20260507024541 52 314 0.0 0.0 0.00 0.03 0.00 90 1012.2
20260507024038 52 314 0.0 0.0 0.00 0.03 0.00 90 1012.3
20260507023519 53 314 0.0 0.0 0.00 0.03 0.00 89 1012.4
20260507023013 53 314 0.0 0.0 0.00 0.03 0.00 88 1012.2
20260507022455 54 314 0.0 0.0 0.00 0.03 0.00 88 1012.1
20260507021950 54 314 0.0 0.0 0.00 0.03 0.00 88 1012.1
20260507021447 54 314 0.0 0.0 0.00 0.03 0.00 88 1012.3
20260507015949 54 314 0.0 0.0 0.00 0.03 0.00 88 1012.2
20260507014950 54 314 0.0 0.0 0.00 0.04 0.00 89 1012.1
20260507014449 53 314 0.0 0.0 0.00 0.04 0.00 88 1011.7
20260507013951 54 314 0.0 0.0 0.00 0.04 0.00 87 1012.1
20260507013449 54 314 0.0 0.0 0.00 0.04 0.00 87 1011.9
20260507012949 54 314 0.0 0.0 0.00 0.04 0.00 88 1012.1